EW4944 Weather Reports


Display with metric or nautical units.
time (UTC)temp
F
wind
direction
speed
MPH
gust
MPH
rain 1hr
in
rain 24hr
in
rain mn
in
humidity
%
barometer
mb
20260504015054 47 0.0 0.0 0.00 0.00 0.00 52 1011.0
20260504014555 47 0.0 0.0 0.00 0.00 0.00 53 1011.1
20260504014053 47 0.0 0.0 0.00 0.00 0.00 56 1011.1
20260504013553 47 0.0 0.0 0.00 0.00 0.00 58 1011.0
20260504013109 47 0.0 0.0 0.00 0.00 0.00 56 1010.9
20260504012553 47 0.0 0.0 0.00 0.00 0.00 58 1010.9
20260504012053 48 0.0 0.0 0.00 0.00 0.00 55 1010.7
20260504011557 48 0.0 0.0 0.00 0.00 0.00 53 1010.7
20260504011058 48 0.0 0.0 0.00 0.00 0.00 56 1010.7
20260504010558 48 0.0 0.0 0.00 0.00 0.00 54 1010.6
20260504010113 49 0.0 0.0 0.00 0.00 0.00 52 1010.5
20260504005601 49 0.0 0.0 0.00 0.00 0.00 54 1010.4
20260504005059 49 0.0 0.0 0.00 0.00 0.00 52 1010.4
20260504004624 49 0.0 0.0 0.00 0.00 0.00 50 1010.3
20260504004059 49 0.0 0.0 0.00 0.00 0.00 53 1010.2
20260504003601 49 0.0 0.0 0.00 0.00 0.00 53 1010.2
20260504003057 49 0.0 0.0 0.00 0.00 0.00 51 1010.2
20260504002558 49 0.0 0.0 0.00 0.00 0.00 52 1010.1
20260504002058 49 0.0 0.0 0.00 0.00 0.00 55 1010.1
20260504001612 49 0.0 0.0 0.00 0.00 0.00 53 1010.0
20260504001058 50 0.0 0.0 0.00 0.00 0.00 50 1009.9
20260504000558 50 0.0 0.0 0.00 0.00 0.00 48 1009.9
20260504000058 50 0.0 0.0 0.00 0.00 0.00 47 1009.9
20260503235558 50 0.0 0.0 0.00 0.00 0.00 46 1009.8
20260503235058 51 0.0 0.0 0.00 0.00 0.00 46 1009.6
20260503234556 51 0.0 0.0 0.00 0.00 0.00 45 1009.6
20260503234058 52 0.0 0.0 0.00 0.00 0.00 42 1009.6
20260503233558 52 1.0 2.0 0.00 0.00 0.00 43 1009.5
20260503233059 53 1.0 3.0 0.00 0.00 0.00 42 1009.5
20260503232557 53 294 1.0 4.0 0.00 0.00 0.00 42 1009.4
20260503232057 53 294 1.0 6.0 0.00 0.00 0.00 41 1009.3
20260503231559 54 284 2.0 7.0 0.00 0.00 0.00 41 1009.3
20260503231059 54 292 3.0 8.0 0.00 0.00 0.00 43 1009.2
20260503230559 54 297 2.0 8.0 0.00 0.00 0.00 42 1009.3
20260503230103 55 321 3.0 7.0 0.00 0.00 0.00 40 1009.2
20260503225601 55 296 2.0 7.0 0.00 0.00 0.00 40 1009.1
20260503225058 55 16 1.0 9.0 0.00 0.00 0.00 40 1009.0
20260503224556 55 338 2.0 11.0 0.00 0.00 0.00 39 1009.0
20260503224058 55 298 4.0 11.0 0.00 0.00 0.00 39 1009.0
20260503223558 55 272 5.0 13.0 0.00 0.00 0.00 39 1008.8
20260503223100 55 316 5.0 13.0 0.00 0.00 0.00 41 1009.0
20260503222557 56 295 6.0 12.0 0.00 0.00 0.00 40 1009.0
20260503222057 56 233 6.0 14.0 0.00 0.00 0.00 39 1008.9
20260503221559 56 302 6.0 17.0 0.00 0.00 0.00 39 1008.9
20260503221058 56 282 8.0 17.0 0.00 0.00 0.00 39 1008.8
20260503220558 56 333 6.0 16.0 0.00 0.00 0.00 36 1008.8
20260503220057 56 285 8.0 16.0 0.00 0.00 0.00 37 1008.8
20260503215554 56 267 5.0 17.0 0.00 0.00 0.00 39 1008.9
20260503215057 56 22 5.0 18.0 0.00 0.00 0.00 40 1009.0
20260503214600 56 280 6.0 18.0 0.00 0.00 0.00 38 1008.9
20260503214101 56 289 9.0 18.0 0.00 0.00 0.00 39 1008.9
20260503213558 56 298 6.0 17.0 0.00 0.00 0.00 40 1008.8
20260503213107 56 301 8.0 23.0 0.00 0.00 0.00 39 1008.8
20260503212558 56 280 8.0 23.0 0.00 0.00 0.00 39 1008.7
20260503212059 56 296 8.0 24.0 0.00 0.00 0.00 39 1008.8
20260503211557 56 303 11.0 24.0 0.00 0.00 0.00 40 1008.7
20260503211056 56 294 6.0 16.0 0.00 0.00 0.00 41 1008.7
20260503210600 57 326 7.0 16.0 0.00 0.00 0.00 39 1008.8
20260503210104 56 309 4.0 16.0 0.00 0.00 0.00 43 1008.8
20260503205558 56 325 7.0 16.0 0.00 0.00 0.00 43 1008.8
20260503205059 56 290 3.0 14.0 0.00 0.00 0.00 43 1008.7
20260503204609 57 330 6.0 13.0 0.00 0.00 0.00 42 1008.8
20260503204054 57 311 5.0 14.0 0.00 0.00 0.00 39 1008.8
20260503203600 58 312 6.0 15.0 0.00 0.00 0.00 39 1008.8
20260503203106 57 274 6.0 20.0 0.00 0.00 0.00 41 1008.7
20260503202556 57 286 6.0 25.0 0.00 0.00 0.00 39 1008.8
20260503202058 57 45 10.0 25.0 0.00 0.00 0.00 42 1008.8
20260503201558 58 242 6.0 15.0 0.00 0.00 0.00 40 1008.8
20260503201058 57 288 8.0 15.0 0.00 0.00 0.00 39 1008.8
20260503200558 58 340 6.0 16.0 0.00 0.00 0.00 39 1009.0
20260503200101 58 308 7.0 16.0 0.00 0.00 0.00 38 1008.9
20260503195559 59 275 9.0 16.0 0.00 0.00 0.00 43 1008.9
20260503195058 59 315 6.0 18.0 0.00 0.00 0.00 41 1008.9
20260503194558 58 291 5.0 21.0 0.00 0.00 0.00 40 1009.0
20260503194055 58 300 10.0 21.0 0.00 0.00 0.00 40 1008.9
20260503193558 57 281 6.0 17.0 0.00 0.00 0.00 45 1009.0
20260503193102 56 295 9.0 24.0 0.00 0.00 0.00 43 1009.1
20260503192558 56 281 9.0 24.0 0.00 0.00 0.00 41 1009.1
20260503192058 57 296 8.0 17.0 0.00 0.00 0.00 42 1009.0
20260503191620 58 283 6.0 12.0 0.00 0.00 0.00 41 1009.0
20260503191056 58 290 5.0 13.0 0.00 0.00 0.00 39 1008.9
20260503190556 59 327 6.0 14.0 0.00 0.00 0.00 40 1009.1
20260503190059 59 324 5.0 17.0 0.00 0.00 0.00 42 1008.9
20260503185559 57 287 7.0 17.0 0.00 0.00 0.00 41 1008.8
20260503185057 57 283 6.0 15.0 0.00 0.00 0.00 41 1009.0
20260503184601 57 318 7.0 19.0 0.00 0.00 0.00 43 1008.9
20260503184103 58 288 8.0 19.0 0.00 0.00 0.00 39 1008.8
20260503183556 58 281 8.0 16.0 0.00 0.00 0.00 43 1008.9
20260503183114 57 295 5.0 17.0 0.00 0.00 0.00 42 1008.7
20260503182556 58 296 8.0 17.0 0.00 0.00 0.00 41 1008.9
20260503182056 58 298 5.0 15.0 0.00 0.00 0.00 43 1008.7
20260503181601 57 285 6.0 15.0 0.00 0.00 0.00 40 1008.8
20260503181056 58 265 6.0 15.0 0.00 0.00 0.00 42 1008.9
20260503180559 58 292 6.0 22.0 0.00 0.00 0.00 39 1008.9
20260503180059 59 313 8.0 22.0 0.00 0.00 0.00 43 1008.8
20260503175555 58 288 9.0 22.0 0.00 0.00 0.00 44 1008.8
20260503175056 57 290 7.0 17.0 0.00 0.00 0.00 48 1008.8
20260503174557 55 261 4.0 11.0 0.00 0.00 0.00 43 1008.8
20260503174056 55 286 5.0 11.0 0.00 0.00 0.00 44 1008.8
20260503173556 54 286 2.0 15.0 0.00 0.00 0.00 44 1009.0
20260503173118 55 270 6.0 15.0 0.00 0.00 0.00 44 1009.0
20260503172601 55 270 7.0 15.0 0.00 0.00 0.00 46 1009.1
20260503172055 55 243 5.0 15.0 0.00 0.00 0.00 49 1009.1
20260503171558 52 350 6.0 15.0 0.00 0.00 0.00 48 1009.2
20260503171057 53 304 3.0 15.0 0.00 0.00 0.00 50 1009.2
20260503170556 53 315 4.0 17.0 0.00 0.00 0.00 45 1009.2
20260503150558 56 291 9.0 25.0 0.00 0.00 0.00 53 1009.4
20260503140107 53 58 7.0 22.0 0.00 0.00 0.00 56 1009.2
20260503131055 50 325 6.0 18.0 0.00 0.00 0.00 60 1009.3
20260503130555 50 301 6.0 18.0 0.00 0.00 0.00 62 1009.4
20260503120124 45 310 4.0 11.0 0.00 0.00 0.00 68 1009.1
20260503110557 42 292 3.0 11.0 0.00 0.00 0.00 71 1009.0
20260503100105 41 0.0 0.0 0.00 0.00 0.00 70 1008.7
20260503081557 42 0.0 0.0 0.00 0.00 0.00 65 1009.0
20260503081056 42 0.0 0.0 0.00 0.00 0.00 64 1009.0
20260503080558 42 0.0 0.0 0.00 0.00 0.00 64 1008.9
20260503072557 44 0.0 0.0 0.00 0.00 0.00 59 1008.6
20260503072057 45 0.0 0.0 0.00 0.00 0.00 59 1008.8
20260503071607 45 0.0 0.0 0.00 0.00 0.00 60 1008.8
20260503071057 45 0.0 0.0 0.00 0.00 0.00 59 1008.9
20260503070557 45 0.0 0.0 0.00 0.00 0.00 58 1008.9
20260503070106 45 0.0 0.0 0.00 0.00 0.00 58 1009.1
20260503055057 47 0.0 0.0 0.00 0.00 0.00 57 1009.6
20260503054559 47 0.0 0.0 0.00 0.00 0.00 58 1009.7
20260503054058 47 0.0 0.0 0.00 0.00 0.00 58 1009.6
20260503053559 47 0.0 0.0 0.00 0.00 0.00 58 1009.7
20260503053055 47 0.0 0.0 0.00 0.00 0.00 57 1009.8
20260503052554 47 0.0 0.0 0.00 0.00 0.00 57 1009.8
20260503052058 47 0.0 0.0 0.00 0.00 0.00 59 1009.9
20260503051600 47 0.0 0.0 0.00 0.00 0.00 58 1009.9
20260503051057 47 0.0 0.0 0.00 0.00 0.00 58 1009.9
20260503050601 47 0.0 0.0 0.00 0.00 0.00 58 1010.0
20260503050055 47 0.0 0.0 0.00 0.00 0.00 59 1010.0
20260503045559 47 0.0 0.0 0.00 0.00 0.00 60 1010.1
20260503045058 48 0.0 0.0 0.00 0.00 0.00 59 1010.0
20260503044603 48 0.0 0.0 0.00 0.00 0.00 58 1010.1
20260503044057 48 0.0 0.0 0.00 0.00 0.00 58 1010.1
20260503043557 48 0.0 0.0 0.00 0.00 0.00 59 1010.1
20260503043057 48 0.0 0.0 0.00 0.00 0.00 59 1010.2
20260503042557 48 0.0 0.0 0.00 0.00 0.00 59 1010.3
20260503042057 48 0.0 0.0 0.00 0.00 0.00 59 1010.3
20260503041607 48 0.0 0.0 0.00 0.00 0.00 59 1010.5
20260503041057 48 0.0 0.0 0.00 0.00 0.00 58 1010.3
20260503040557 48 0.0 0.0 0.00 0.00 0.00 58 1010.4
20260503040100 48 0.0 0.0 0.00 0.00 0.00 58 1010.3
20260503035558 48 0.0 0.0 0.00 0.00 0.00 59 1010.2
20260503035101 48 0.0 0.0 0.00 0.00 0.00 58 1010.3
20260503034608 49 0.0 0.0 0.00 0.00 0.00 58 1010.3
20260503034100 49 0.0 0.0 0.00 0.00 0.00 57 1010.3
20260503033557 49 0.0 0.0 0.00 0.00 0.00 57 1010.2
20260503033100 49 0.0 0.0 0.00 0.00 0.00 58 1010.2
20260503032557 49 0.0 0.0 0.00 0.00 0.00 58 1010.2
20260503032056 49 0.0 0.0 0.00 0.00 0.00 58 1010.1
20260503031558 48 0.0 0.0 0.00 0.00 0.00 59 1010.2
20260503031058 48 0.0 0.0 0.00 0.00 0.00 59 1010.3
20260503030558 49 0.0 0.0 0.00 0.00 0.00 59 1010.1
20260503030058 49 0.0 0.0 0.00 0.00 0.00 58 1010.1
20260503025557 49 0.0 0.0 0.00 0.00 0.00 58 1010.3
20260503025057 49 0.0 0.0 0.00 0.00 0.00 58 1010.2
20260503024600 49 0.0 0.0 0.00 0.00 0.00 58 1010.2
20260503024057 49 0.0 0.0 0.00 0.00 0.00 58 1010.2
20260503023557 49 0.0 0.0 0.00 0.00 0.00 58 1010.2
20260503023056 49 0.0 0.0 0.00 0.00 0.00 57 1010.2
20260503022556 49 0.0 0.0 0.00 0.00 0.00 58 1010.3
20260503022058 49 0.0 0.0 0.00 0.00 0.00 59 1010.4
20260503021557 49 0.0 0.0 0.00 0.00 0.00 60 1010.4
20260503021057 49 0.0 0.0 0.00 0.00 0.00 60 1010.5
20260503020557 49 0.0 0.0 0.00 0.00 0.00 63 1010.6
20260503020056 49 0.0 0.0 0.00 0.00 0.00 64 1010.6
20260503015558 49 0.0 0.0 0.00 0.00 0.00 65 1010.6